Regional Weather Roundup
Issued by NWS Sterling, VA

Home | Current Version | Previous Version | Text Only | Print | Product List | Glossary Off
Versions: 1 2 3 4 5 6 7 8 9 10 11 12 13 14 15 16 17 18 19 20 21 22 23 24 25 26 27

000
ASUS41 KLWX 240310
RWRLWX

REGIONAL WEATHER ROUNDUP
NATIONAL WEATHER SERVICE BALTIMORE MD/WASHINGTON DC
1100 PM EDT MON MAY 23 2016

Note: "FAIR" indicates few or no clouds below 12,000 feet
with no significant weather and/or obstructions to visibility.
 TC=TEMPERATURE CELSIUS

 * =Non NWS site. Station does not report precipitation (e.g. rain,
    snow, etc.), thunder, or fog.

DCZ001-MDZ009-015-VAZ040>042-051-053>054-240400-
WASHINGTON METRO

CITY           SKY/WX    TMP DP  RH WIND       PRES   REMARKS
WASHINGTON NAT CLOUDY    61  57  87 W3        29.98S
DULLES         MOCLDY    57  55  93 CALM      29.98S
ANDREWS AFB    CLOUDY    59  57  92 W13       29.95F
FT BELVOIR     MOCLDY    59  57  94 W1        29.98R
QUANTICO       MOCLDY    60  57  89 NE3       30.00R
LEESBURG*      FAIR      61  59  94 SW5       29.98F
MANASSAS*      FAIR      57  57 100 S3        29.99R

$$

MDZ006>007-011-014-240400-
BALTIMORE METRO

CITY           SKY/WX    TMP DP  RH WIND       PRES   REMARKS
BWI AIRPORT    CLOUDY    58  56  93 W8        29.94S
MD SCIENCE CTR   N/A     63  55  75 MISG      29.95S
MARTIN STATE   DRIZZLE   59  59 100 W13       29.96R
ANNAPOLIS      CLOUDY    59  56  89 W8        29.94R
FORT MEADE*    CLOUDY    55  54  94 W7        29.97F

$$

MDZ012-015-019>023-240400-
MARYLAND EASTERN SHORE

CITY           SKY/WX    TMP DP  RH WIND       PRES   REMARKS
OCEAN CITY     MOCLDY    56  53  90 CALM      29.95R
SALISBURY      CLOUDY    57  54  89 CALM      29.94S
BAY BRIDGE AP* CLOUDY    61  55  82 NW9       29.94R
EASTON*        PTCLDY    60  60 100 CALM      29.98R

$$

MDZ017>025-240400-
SOUTHERN MARYLAND

CITY           SKY/WX    TMP DP  RH WIND       PRES   REMARKS
PATUXENT RIVER CLOUDY    59  55  87 SW6       29.94S
ST INIGOES     CLOUDY    60  56  86 W3        29.94S
LEONARDTOWN*   NOT AVBL

$$

MDZ003>005-240400-
NORTH CENTRAL MARYLAND

CITY           SKY/WX    TMP DP  RH WIND       PRES   REMARKS
FREDERICK*     CLOUDY    59  57  94 S5        29.99S
HAGERSTOWN APT CLOUDY    59  55  87 S6        29.97R
WESTMINSTER*   CLOUDY    59  46  63 SW7       29.96S

$$

MDZ501>502-240400-
WESTERN MARYLAND

CITY           SKY/WX    TMP DP  RH WIND       PRES   REMARKS
OAKLAND*       NOT AVBL
CUMBERLAND*    PTCLDY    61  54  77 SW3       30.05S

$$

VAZ025>031-240400-
SHENANDOAH VALLEY

CITY           SKY/WX    TMP DP  RH WIND       PRES   REMARKS
WINCHESTER*    LGT RAIN  59  54  82 SW7       29.98F
FRONT ROYAL*   CLOUDY    57  54  88 W6        30.00F
LURAY*         CLOUDY    61  54  77 NE5       30.03R
NEW MARKET*    CLOUDY    56  55  93 CALM      30.02R
STAUNTON*      MOCLDY    56  56 100 CALM      30.05R
WAYNESBORO*    FAIR      55  52  91 CALM      30.04R

$$

WVZ021-048>050-054>055-240400-
EASTERN WEST VIRGINIA PANHANDLE

CITY           SKY/WX    TMP DP  RH WIND       PRES   REMARKS
MARTINSBURG    MOCLDY    57  54  89 SE3       29.97R
PETERSBURG*    CLOUDY    57  57  97 CALM      30.04R

$$

VAZ036>039-050-240400-
CENTRAL FOOTHILLS

CITY           SKY/WX    TMP DP  RH WIND       PRES   REMARKS
CHARLOTTESVILL MOCLDY    58  55  90 CALM      30.01R
CULPEPER*      FAIR      58  57  95 CALM      30.01S
ORANGE*        CLOUDY    57  57 100 CALM      30.02S
GORDONSVILLE*  CLOUDY    56  56 100 CALM      30.00F
WARRENTON*     FAIR      58  54  85 CALM      29.98F

$$

VAZ055>057-240400-
NORTH AND CENTRAL PIEDMONT

CITY           SKY/WX    TMP DP  RH WIND       PRES   REMARKS
FREDERICKSBRG* FAIR      59  59 100 NW3       29.98R
STAFFORD*      FAIR      57  55  94 CALM      30.02S

$$

NCZ024-NYZ072-PAZ021-071-VAZ022-071-240400-
OTHER REGIONAL OBSERVATIONS

CITY           SKY/WX    TMP DP  RH WIND       PRES   REMARKS
NEW YORK CITY  CLOUDY    63  45  51 CALM      29.95R
PHILADELPHIA   CLOUDY    61  55  81 S6        29.94R
PITTSBURGH     PTCLDY    62  51  67 CALM      30.02R
ROANOKE        FAIR      56  54  93 N3        30.07R
RICHMOND       CLOUDY    60  56  86 NW3       29.97S
RALEIGH        PTCLDY    54  52  93 CALM      30.04R

$$

ANZ530>537-240400-
MARINE OBSERVATIONS

STATION/POSITION TIME  TEMP    WIND        PRES
                       AIR SEA DIR/SP/G
                 (UTC) (F)     (DEG/KT/KT) (MB)
THOMAS PT LIGHT  0300   60 61  290/ 13/ 14 1014.9R
BALT KEY BRIDGE  0200   60     260/ 11/ 12 1013.3
COVE POINT       0200   59     320/  4/  5 1014.6
LEWISETTA        0200   62 63  330/  6/  8 1013.7
SOLOMONS ISLAND  0200   60 62  300/  3/  5   N/A
PINEY POINT      0200          340/  6/  7   N/A

$$





USA.gov is the U.S. government's official web portal to all federal, state and local government web resources and services.